Location: Newark
(31.5350°N, 35.0986°E)
Time: 08:57:18
(UTC+00:00)

A-11 Canister half - Pass Details

Date: 24 October 2019
Orbit: 1514 x 1685 km, 47.2° (Epoch: 19 November)

Event Time Altitude Azimuth Distance (km) Brightness Sun altitude
Exits shadow 02:28:48 12° 312° (NW) 3,638 10.5 -17.7°
Maximum altitude 02:36:37 34° 11° (NNE) 2,401 10.1 -16.0°
Drops below altitude 10° 02:44:56 10° 74° (ENE) 3,721 12.2 -14.3°
Sets 02:48:23 0° 83° (E) 4,685 13.3 -13.5°
